Location: Bosdarros
(43.2167°N, 0.3667°W)
Time: 16:10:12
(UTC+00:00)

Cosmos 2151 - Pass Details

Date: 22 April 2021
Orbit: 581 x 600 km, 82.5° (Epoch: 12 May)

Event Time Altitude Azimuth Distance (km) Brightness Sun altitude
Rises 21:12:39 0° 342° (NNW) 2,857 7.5 -22.5°
Reaches altitude 10° 21:15:01 10° 334° (NNW) 1,948 6.6 -22.8°
Maximum altitude 21:18:55 34° 269° (W) 987 4.4 -23.3°
Enters shadow 21:20:45 24° 224° (SW) 1,261 4.6 -23.5°
